Date String (YYYY-MM-DD hh:mm:ss) UTC,Instrument flags,absolute air pressure of the measurement (hPa),sample flow rate (lpm),inlet stack bypass flow (lpm),air temperature of the measurement (°C),ambient temperature measured by the external sensor (°C),aerosol sample conditioner tube jacket temperature (°C),OPC LED temperature (°C),internal box temperature (°C),relative humidity of the measurement (%),span deviation,mass concentration of particles derived from Lorenz-Mie calculation of OPC scattering (μg/m³),mass concentration of particles derived from Lorenz-Mie calculation of OPC scattering (μg/m³),mass concentration of particles derived from Lorenz-Mie calculation of OPC scattering (μg/m³)
DateTimeUTC,F1_M11,P_M11,Q1_M11,Q2_M11,T1_M11,T2_M11,T3_M11,T4_M11,T5_M11,U1_M11,ZSPAN_M11,X0_M11,X2_M11,X1_M11
2023-08-14 12:00:00,SystemResetWarning,0840.6,5.00,000.00,029.7,028.3,000.0,038.4,031.2,20.8,0000.2,0012.42,0004.27,0003.56
2023-08-14 12:01:00,SystemResetWarning,0840.6,5.01,000.00,029.7,028.3,000.0,038.4,031.3,20.8,0000.5,0012.09,0004.23,0003.54
2023-08-14 12:02:00,SystemResetWarning,0840.6,5.01,000.00,029.7,028.3,000.0,038.4,031.3,20.8,0000.0,0011.70,0004.18,0003.54
2023-08-14 12:03:00,SystemResetWarning,0840.6,5.00,000.00,029.7,028.3,000.0,038.4,031.3,20.7,0000.0,0011.45,0004.12,0003.53
2023-08-14 12:04:00,SystemResetWarning,0840.7,5.00,000.00,029.7,028.3,000.0,038.4,031.3,20.8,0000.0,0011.40,0004.11,0003.53
2023-08-14 12:05:00,SystemResetWarning,0840.7,4.99,000.00,029.7,028.3,000.0,038.4,031.3,20.8,0000.0,0011.47,0004.16,0003.54
2023-08-14 12:06:00,SystemResetWarning,0840.7,4.99,000.00,029.8,028.3,000.0,038.4,031.3,20.8,0000.0,0012.31,0004.20,0003.55
2023-08-14 12:07:00,SystemResetWarning,0840.8,5.00,000.00,029.8,028.3,000.0,038.4,031.3,20.7,0000.0,0012.54,0004.25,0003.56
2023-08-14 12:08:00,SystemResetWarning,0840.8,5.00,000.00,029.8,028.3,000.0,038.4,031.3,20.8,0000.0,0012.21,0004.25,0003.58
2023-08-14 12:09:00,SystemResetWarning,0840.8,5.00,000.00,029.8,028.3,000.0,038.4,031.3,20.7,0000.0,0011.36,0004.24,0003.58
2023-08-14 12:10:00,SystemResetWarning,0840.7,5.00,000.00,029.8,028.3,000.0,038.4,031.3,20.6,0000.0,0010.49,0004.26,0003.59
2023-08-14 12:11:00,SystemResetWarning,0840.7,5.00,000.00,029.8,028.3,000.0,038.4,031.3,20.6,0000.0,0010.21,0004.23,0003.58
2023-08-14 12:12:00,SystemResetWarning,0840.7,5.00,000.00,029.8,028.3,000.0,038.4,031.3,20.7,0000.0,0010.17,0004.24,0003.59
2023-08-14 12:13:00,SystemResetWarning,0840.7,5.00,000.00,029.8,028.3,000.0,038.4,031.3,20.7,0000.0,0009.76,0004.20,0003.59
2023-08-14 12:14:00,SystemResetWarning,0840.8,5.01,000.00,029.8,028.3,000.0,038.4,031.3,20.6,0000.0,0009.61,0004.20,0003.59
2023-08-14 12:15:00,SystemResetWarning,0840.8,5.00,000.00,029.8,028.3,000.0,038.4,031.3,20.6,0000.0,0009.74,0004.19,0003.57
2023-08-14 12:16:00,SystemResetWarning,0840.8,5.00,000.00,029.8,028.4,000.0,038.4,031.3,20.6,0000.0,0010.49,0004.17,0003.56
2023-08-14 12:17:00,SystemResetWarning,0840.8,5.00,000.00,029.8,028.4,000.0,038.4,031.3,20.6,0000.0,0009.22,0004.15,0003.56
2023-08-14 12:18:00,SystemResetWarning,0840.9,5.00,000.00,029.8,028.4,000.0,038.4,031.3,20.6,0001.7,0009.10,0004.18,0003.57
2023-08-14 12:19:00,SystemResetWarning,0841.0,5.00,000.00,029.8,028.4,000.0,038.5,031.3,20.5,0001.1,0009.05,0004.18,0003.57
2023-08-14 12:20:00,SystemResetWarning,0841.0,4.99,000.00,029.8,028.4,000.0,038.5,031.3,20.4,0001.8,0009.49,0004.19,0003.56
2023-08-14 12:21:00,SystemResetWarning,0841.0,5.00,000.00,029.8,028.4,000.0,038.5,031.3,20.4,0000.0,0009.68,0004.19,0003.56
2023-08-14 12:22:00,SystemResetWarning,0841.1,5.00,000.00,029.8,028.4,000.0,038.5,031.3,20.4,0000.0,0009.32,0004.16,0003.56
2023-08-14 12:23:00,SystemResetWarning,0841.1,5.00,000.00,029.8,028.4,000.0,038.5,031.4,20.4,0000.0,0009.27,0004.15,0003.57
2023-08-14 12:24:00,SystemResetWarning,0841.1,5.00,000.00,029.8,028.4,000.0,038.5,031.3,20.4,0000.0,0009.27,0004.15,0003.58
2023-08-14 12:25:00,SystemResetWarning,0841.0,5.00,000.00,029.8,028.4,000.0,038.5,031.3,20.4,0000.0,0009.31,0004.17,0003.60
2023-08-14 12:26:00,SystemResetWarning,0841.1,5.00,000.00,029.8,028.4,000.0,038.5,031.3,20.4,0000.0,0009.29,0004.18,0003.61
2023-08-14 12:27:00,SystemResetWarning,0841.2,5.00,000.00,029.8,028.4,000.0,038.5,031.4,20.4,0000.0,0008.75,0004.13,0003.63
2023-08-14 12:28:00,SystemResetWarning,0841.2,5.00,000.00,029.8,028.4,000.0,038.5,031.4,20.4,0000.0,0009.64,0004.11,0003.63
2023-08-14 12:29:00,SystemResetWarning,0841.2,4.99,000.00,029.8,028.4,000.0,038.5,031.3,20.2,0000.0,0009.57,0004.07,0003.64
2023-08-14 12:30:00,SystemResetWarning,0841.2,4.99,000.00,029.8,028.4,000.0,038.5,031.3,20.0,0000.0,0009.42,0004.04,0003.64
2023-08-14 12:31:00,SystemResetWarning,0841.1,4.99,000.00,029.9,028.4,000.0,038.5,031.4,20.2,0000.0,0009.25,0004.04,0003.65
2023-08-14 12:32:00,SystemResetWarning,0841.2,5.00,000.00,029.9,028.4,000.0,038.5,031.4,20.3,0000.0,0008.63,0004.03,0003.66
2023-08-14 12:33:00,SystemResetWarning,0841.2,5.00,000.00,029.9,028.4,000.0,038.5,031.4,20.2,0000.0,0008.65,0004.04,0003.66
2023-08-14 12:34:00,SystemResetWarning,0841.2,5.00,000.00,029.9,028.4,000.0,038.5,031.4,20.2,0000.0,0008.77,0004.06,0003.66
2023-08-14 12:35:00,SystemResetWarning,0841.2,5.01,000.00,029.9,028.4,000.0,038.5,031.4,20.3,0001.7,0008.87,0004.08,0003.66
2023-08-14 12:36:00,SystemResetWarning,0841.2,5.00,000.00,029.9,028.4,000.0,038.5,031.4,20.3,0002.0,0009.60,0004.08,0003.66
2023-08-14 12:37:00,SystemResetWarning,0841.3,5.01,000.00,029.9,028.4,000.0,038.5,031.4,20.3,0002.2,0009.68,0004.06,0003.66
2023-08-14 12:38:00,SystemResetWarning,0841.2,4.99,000.00,029.9,028.4,000.0,038.5,031.4,20.4,0002.5,0009.43,0004.08,0003.67
2023-08-14 12:39:00,SystemResetWarning,0841.2,4.99,000.00,029.9,028.4,000.0,038.6,031.4,20.4,0002.5,0008.31,0004.09,0003.67
2023-08-14 12:40:00,SystemResetWarning,0841.3,5.00,000.00,029.9,028.4,000.0,038.6,031.4,20.4,0002.5,0008.22,0004.09,0003.66
2023-08-14 12:41:00,SystemResetWarning,0841.3,5.01,000.00,029.9,028.4,000.0,038.6,031.4,20.3,0003.1,0008.22,0004.07,0003.66
2023-08-14 12:42:00,SystemResetWarning,0841.4,5.00,000.00,029.9,028.4,000.0,038.6,031.4,20.4,0003.0,0008.25,0004.06,0003.65
2023-08-14 12:43:00,SystemResetWarning,0841.4,5.00,000.00,029.9,028.4,000.0,038.6,031.4,20.4,0003.1,0008.43,0004.07,0003.65
2023-08-14 12:44:00,SystemResetWarning,0841.4,5.00,000.00,029.9,028.4,000.0,038.6,031.4,20.4,0003.0,0008.46,0004.08,0003.66
2023-08-14 12:45:00,SystemResetWarning,0841.5,5.00,000.00,029.9,028.4,000.0,038.6,031.4,20.4,0002.6,0008.45,0004.08,0003.65
2023-08-14 12:46:00,SystemResetWarning,0841.4,5.00,000.00,029.9,028.4,000.0,038.6,031.4,20.5,0001.0,0008.24,0004.04,0003.63
2023-08-14 12:47:00,SystemResetWarning,0841.4,5.00,000.00,029.9,028.4,000.0,038.6,031.4,20.5,0000.0,0007.48,0004.04,0003.62
2023-08-14 12:48:00,SystemResetWarning,0841.5,5.00,000.00,029.9,028.4,000.0,038.6,031.4,20.3,0000.0,0007.61,0004.05,0003.61
2023-08-14 12:49:00,SystemResetWarning,0841.5,5.00,000.00,029.9,028.4,000.0,038.6,031.4,20.3,0000.4,0007.62,0004.04,0003.61
2023-08-14 12:50:00,SystemResetWarning,0841.5,5.00,000.00,029.9,028.4,000.0,038.6,031.4,20.3,0002.7,0007.61,0004.03,0003.61
2023-08-14 12:51:00,SystemResetWarning,0841.5,5.00,000.00,029.9,028.4,000.0,038.6,031.4,20.2,0002.2,0007.61,0004.01,0003.61
2023-08-14 12:52:00,SystemResetWarning,0841.5,4.99,000.00,029.9,028.5,000.0,038.6,031.4,20.2,0001.8,0007.70,0004.02,0003.60
2023-08-14 12:53:00,SystemResetWarning,0841.6,5.00,000.00,029.9,028.5,000.0,038.6,031.4,20.3,0001.7,0007.69,0004.02,0003.59
2023-08-14 12:54:00,SystemResetWarning,0841.6,5.00,000.00,029.9,028.5,000.0,038.6,031.4,20.3,0001.7,0007.59,0004.02,0003.59
2023-08-14 12:55:00,SystemResetWarning,0841.5,5.00,000.00,029.9,028.5,000.0,038.6,031.4,20.2,0001.4,0007.67,0004.02,0003.58
2023-08-14 12:56:00,SystemResetWarning,0841.6,5.00,000.00,029.9,028.5,000.0,038.6,031.4,20.2,0001.4,0007.87,0004.01,0003.57
2023-08-14 12:57:00,SystemResetWarning,0841.6,5.00,000.00,029.9,028.5,000.0,038.6,031.5,20.2,0001.4,0008.02,0004.00,0003.56
2023-08-14 12:58:00,SystemResetWarning,0841.6,5.00,000.00,030.0,028.5,000.0,038.6,031.4,20.2,0001.4,0008.06,0004.01,0003.55
2023-08-14 12:59:00,SystemResetWarning,0841.6,5.00,000.00,029.9,028.5,000.0,038.6,031.4,20.1,0001.5,0007.81,0003.99,0003.54
